When you browse on this site, cookies collect data to enhance your experience and personalize the content and advertising you see.
Visit our Privacy Policy to learn more. By continuing to use the site, you agree to this use of cookies and data.
  • en Suisse
  • Liste des pays
  • À 7 jours
  • Température de l'eau
  • Carte météo
  • Widgets météo
  • user-avatar
    Se connecter

    Météo par heure à Torez

    Ce jour, 24 Février, Lundi

    Heure Température Précipitation Vent Pression Humidité
    00:00 -1°C° 0.1 mm 7 m/s 739 mmHg 92%
    01:00 -1°C° 0.1 mm 7 m/s 738 mmHg 93%
    02:00 -1°C° 0.1 mm 7 m/s 738 mmHg 94%
    03:00 -1°C° 0 mm 6 m/s 737 mmHg 97%
    04:00 -1°C° 0.4 mm 6 m/s 737 mmHg 97%
    05:00 -1°C° 0.4 mm 6 m/s 736 mmHg 97%
    06:00 -1°C° 0.4 mm 6 m/s 735 mmHg 97%
    07:00 -1°C° 0.5 mm 7 m/s 735 mmHg 97%
    08:00 -1°C° 0.5 mm 7 m/s 734 mmHg 97%
    09:00 -1°C° 0 mm 7 m/s 733 mmHg 97%
    10:00 -1°C° 0.4 mm 7 m/s 732 mmHg 97%
    11:00 -1°C° 0.4 mm 7 m/s 731 mmHg 97%
    12:00 -1°C° 0.4 mm 8 m/s 730 mmHg 97%
    13:00 -1°C° 0.4 mm 8 m/s 729 mmHg 97%
    14:00 -1°C° 0.4 mm 9 m/s 728 mmHg 97%
    15:00 0°C° 0.4 mm 9 m/s 727 mmHg 96%
    16:00 0°C° 0.7 mm 9 m/s 726 mmHg 96%
    17:00 0°C° 0.7 mm 8 m/s 725 mmHg 96%
    18:00 0°C° 0.7 mm 7 m/s 723 mmHg 96%
    19:00 0°C° 1.1 mm 7 m/s 723 mmHg 97%
    20:00 +1°C° 1.1 mm 6 m/s 722 mmHg 97%
    21:00 +1°C° 1.1 mm 5 m/s 722 mmHg 97%
    22:00 +1°C° 1.3 mm 4 m/s 722 mmHg 97%
    23:00 0°C° 1.3 mm 4 m/s 722 mmHg 98%

    Demain, 25 Février, Mardi

    Heure Température Précipitation Vent Pression Humidité
    00:00 +1°C° 1.3 mm 3 m/s 722 mmHg 98%
    01:00 0°C° 1.2 mm 5 m/s 723 mmHg 97%
    02:00 -1°C° 1.2 mm 7 m/s 724 mmHg 97%
    03:00 -3°C° 1.2 mm 9 m/s 725 mmHg 96%
    04:00 -3°C° 0.6 mm 10 m/s 726 mmHg 95%
    05:00 -3°C° 0.6 mm 11 m/s 728 mmHg 94%
    06:00 -5°C° 0.6 mm 12 m/s 729 mmHg 92%
    07:00 -4°C° 0.1 mm 11 m/s 731 mmHg 88%
    08:00 -4°C° 0.1 mm 10 m/s 732 mmHg 84%
    09:00 -3°C° 0.1 mm 10 m/s 734 mmHg 79%
    10:00 -3°C° 0 mm 9 m/s 735 mmHg 75%
    11:00 -1°C° 0 mm 9 m/s 736 mmHg 71%
    12:00 -1°C° 0 mm 9 m/s 737 mmHg 67%
    13:00 -1°C° 0 mm 8 m/s 738 mmHg 64%
    14:00 0°C° 0 mm 8 m/s 738 mmHg 61%
    15:00 +2°C° 0 mm 7 m/s 739 mmHg 57%
    16:00 +1°C° 0 mm 6 m/s 739 mmHg 61%
    17:00 0°C° 0 mm 5 m/s 739 mmHg 65%
    18:00 -1°C° 0 mm 4 m/s 739 mmHg 69%
    19:00 0°C° 0 mm 3 m/s 740 mmHg 71%
    20:00 0°C° 0 mm 3 m/s 740 mmHg 73%
    21:00 -1°C° 0 mm 3 m/s 740 mmHg 75%
    22:00 -1°C° 0 mm 3 m/s 740 mmHg 75%
    23:00 -1°C° 0 mm 3 m/s 740 mmHg 76%

    Après-demain, 26 Février, Mercredi

    Heure Température Précipitation Vent Pression Humidité
    00:00 -1°C° 0 mm 3 m/s 740 mmHg 76%
    01:00 -1°C° 0 mm 3 m/s 740 mmHg 79%
    02:00 -1°C° 0 mm 3 m/s 739 mmHg 82%
    03:00 -1°C° 0 mm 3 m/s 739 mmHg 86%
    04:00 -2°C° 0 mm 4 m/s 739 mmHg 87%
    05:00 -1°C° 0 mm 4 m/s 738 mmHg 89%
    06:00 -1°C° 0 mm 5 m/s 738 mmHg 90%
    07:00 -1°C° 0 mm 6 m/s 738 mmHg 88%
    08:00 -1°C° 0 mm 6 m/s 738 mmHg 87%
    09:00 0°C° 0 mm 7 m/s 738 mmHg 85%
    10:00 +1°C° 0 mm 8 m/s 738 mmHg 80%
    11:00 +2°C° 0 mm 8 m/s 737 mmHg 75%
    12:00 +3°C° 0 mm 9 m/s 737 mmHg 70%
    13:00 +3°C° 0 mm 9 m/s 737 mmHg 68%
    14:00 +5°C° 0 mm 9 m/s 736 mmHg 66%
    15:00 +5°C° 0 mm 9 m/s 736 mmHg 64%
    16:00 +3°C° 0 mm 9 m/s 736 mmHg 67%
    17:00 +4°C° 0 mm 8 m/s 735 mmHg 69%
    18:00 +3°C° 0 mm 7 m/s 735 mmHg 72%
    19:00 +3°C° 0 mm 7 m/s 735 mmHg 74%
    20:00 +2°C° 0 mm 7 m/s 735 mmHg 77%
    21:00 +2°C° 0 mm 6 m/s 735 mmHg 79%
    22:00 +2°C° 0 mm 6 m/s 735 mmHg 79%
    23:00 +1°C° 0 mm 6 m/s 734 mmHg 78%

    27 Février, Jeudi

    Heure Température Précipitation Vent Pression Humidité
    00:00 +1°C° 0 mm 6 m/s 734 mmHg 78%
    01:00 +1°C° 0 mm 6 m/s 734 mmHg 77%
    02:00 +1°C° 0 mm 6 m/s 734 mmHg 77%
    03:00 +1°C° 0 mm 5 m/s 733 mmHg 76%
    04:00 +1°C° 0 mm 5 m/s 733 mmHg 78%
    05:00 +2°C° 0 mm 5 m/s 733 mmHg 79%
    06:00 +2°C° 0 mm 5 m/s 732 mmHg 80%
    07:00 +3°C° 0 mm 6 m/s 732 mmHg 80%
    08:00 +3°C° 0 mm 6 m/s 732 mmHg 79%
    09:00 +4°C° 0 mm 6 m/s 733 mmHg 79%
    10:00 +5°C° 0 mm 7 m/s 732 mmHg 75%
    11:00 +7°C° 0 mm 8 m/s 732 mmHg 71%
    12:00 +9°C° 0 mm 8 m/s 732 mmHg 68%
    13:00 +9°C° 0 mm 8 m/s 732 mmHg 68%
    14:00 +10°C° 0 mm 8 m/s 732 mmHg 69%
    15:00 +10°C° 0 mm 9 m/s 732 mmHg 69%
    16:00 +10°C° 0 mm 8 m/s 732 mmHg 73%
    17:00 +9°C° 0 mm 7 m/s 732 mmHg 77%
    18:00 +9°C° 0 mm 6 m/s 731 mmHg 80%
    19:00 +8°C° 0 mm 6 m/s 732 mmHg 82%
    20:00 +8°C° 0 mm 5 m/s 732 mmHg 84%
    21:00 +7°C° 0 mm 5 m/s 732 mmHg 86%
    22:00 +7°C° 0 mm 5 m/s 731 mmHg 86%
    23:00 +7°C° 0 mm 5 m/s 731 mmHg 85%

    28 Février, Vendredi

    Heure Température Précipitation Vent Pression Humidité
    00:00 +6°C° 0 mm 4 m/s 731 mmHg 85%
    01:00 +6°C° 0 mm 5 m/s 730 mmHg 84%
    02:00 +6°C° 0 mm 5 m/s 730 mmHg 82%
    03:00 +6°C° 0 mm 5 m/s 729 mmHg 81%
    04:00 +5°C° 0.2 mm 5 m/s 729 mmHg 81%
    05:00 +5°C° 0.2 mm 5 m/s 728 mmHg 82%
    06:00 +4°C° 0.2 mm 6 m/s 728 mmHg 82%
    07:00 +4°C° 0.5 mm 7 m/s 728 mmHg 84%
    08:00 +4°C° 0.5 mm 8 m/s 728 mmHg 85%
    09:00 +3°C° 0.5 mm 10 m/s 728 mmHg 87%
    10:00 +3°C° 0 mm 11 m/s 728 mmHg 79%
    11:00 +3°C° 0 mm 13 m/s 728 mmHg 72%
    12:00 +1°C° 0 mm 14 m/s 728 mmHg 64%
    13:00 +1°C° 0 mm 13 m/s 730 mmHg 68%
    14:00 0°C° 0 mm 13 m/s 731 mmHg 71%
    15:00 -1°C° 0 mm 12 m/s 732 mmHg 75%
    16:00 -1°C° 0 mm 11 m/s 733 mmHg 69%
    17:00 0°C° 0 mm 9 m/s 734 mmHg 62%
    18:00 -1°C° 0 mm 8 m/s 736 mmHg 56%
    19:00 -1°C° 0 mm 6 m/s 736 mmHg 58%
    20:00 -1°C° 0 mm 5 m/s 737 mmHg 61%
    21:00 -2°C° 0 mm 4 m/s 738 mmHg 63%
    22:00 -2°C° 0 mm 4 m/s 738 mmHg 64%
    23:00 -2°C° 0 mm 4 m/s 739 mmHg 65%

    29 Février, Samedi

    Heure Température Précipitation Vent Pression Humidité
    00:00 -2°C° 0 mm 5 m/s 739 mmHg 66%
    01:00 -2°C° 0 mm 4 m/s 739 mmHg 68%
    02:00 -2°C° 0 mm 4 m/s 739 mmHg 70%
    03:00 -2°C° 0 mm 4 m/s 739 mmHg 72%
    04:00 -1°C° 0 mm 3 m/s 739 mmHg 74%
    05:00 -1°C° 0 mm 3 m/s 739 mmHg 75%
    06:00 -1°C° 0 mm 3 m/s 739 mmHg 77%
    07:00 -1°C° 0 mm 3 m/s 739 mmHg 75%
    08:00 -1°C° 0 mm 4 m/s 739 mmHg 74%
    09:00 0°C° 0 mm 4 m/s 739 mmHg 72%
    10:00 +1°C° 0 mm 5 m/s 739 mmHg 68%
    11:00 +2°C° 0 mm 6 m/s 738 mmHg 65%
    12:00 +3°C° 0 mm 7 m/s 738 mmHg 62%
    13:00 +2°C° 0.2 mm 7 m/s 738 mmHg 69%
    14:00 +2°C° 0.2 mm 7 m/s 738 mmHg 77%
    15:00 0°C° 0.2 mm 7 m/s 737 mmHg 85%
    16:00 -1°C° 0.4 mm 6 m/s 738 mmHg 84%
    17:00 -1°C° 0.4 mm 5 m/s 738 mmHg 82%
    18:00 0°C° 0.4 mm 3 m/s 738 mmHg 81%
    19:00 -1°C° 0 mm 3 m/s 739 mmHg 79%
    20:00 -1°C° 0 mm 3 m/s 739 mmHg 76%
    21:00 -2°C° 0 mm 3 m/s 740 mmHg 73%
    22:00 -2°C° 0 mm 3 m/s 741 mmHg 73%
    23:00 -2°C° 0 mm 3 m/s 741 mmHg 74%
    Voir plus